STARLINK-36287, 67708

Orbit data source: Space-Track

STARLINK-36287, 67708 is a payload satellite owned by SpaceX/Seattle (US) in SSO that was launched on Sat, 07 Feb 2026 UTC via an FALCON 9 launch vehicle from the Air Force Western Test Range (AFWTR). Payload-class satellites include a variety of spacecraft equipped with specific instruments for various scientific and technological missions. These include communications satellites like Starlink; space stations such as the ISS; scientific satellites like the Hubble; Earth observation satellites from companies like Planet Labs, Umbra, and HawkEye 360; GPS; miniature CubeSats for education and research; and military/defense satellites.

Loading next visibility...
Identifier
67708, 2026-025R
Orbit
SSO
Country
Flag of USUS
Related business
Manufacturer
SpaceX/Seattle
Mission
Operational Commercial Communications
Bus & Motor
STARLINK V2MO, Unknown motor
Mass
575 kg wet, ~530 kg dry
Launch date (UTC)
2026-02-07 (4 months ago)
Launch vehicle
FALCON 9
Launch site
Air Force Western Test Range (AFWTR)
Object type
Payload
Rocket body
Debris
Shape & HBR
Box + 2 Pan, 17.7 m
Radar Cross Section
36.964 m², Large (>1 m²)

Expand to show TLE details & history
Last TLE update: 16 hours ago

TLE from 16 hours ago
0 STARLINK-36287
1 67708U 26025R   26171.19563478  .00010425  00000-0  32475-3 0  9999
2 67708  97.2845 282.4684 0001682 112.4567 247.6854 15.33449373 21733
Epoch: 2026-06-20T04:41Z
TLE epoch observation values (Epoch: 2026-06-20T04:41:42.844Z)
Latitude
-0.00006°
Longitude
-56.37385°
Altitude
469.08 km
Speed
7.631 km/s
True Right ascension
18h 49m 52s
True Declination
0° 00' 00"
Sunlit
Object was in full shadow at epoch
Visualization orbit readout
Latitude
Unknown
Longitude
Unknown
Altitude
Unknown
Speed
Unknown
Apparent Right ascension
Unknown
Apparent Declination
Unknown
Sunlit
N/A
Visualization observer readout
Local Sidereal Time
07:19:28
Azimuth
Unknown
Elevation
Unknown
Doppler factor
Unknown
Orbital elements
Apogee altitude
463.623 km
Perigee altitude
461.322 km
Semi-major axis
6,840.61 km
Eccentricity
0.00017
Inclination
97.2845°
RAAN
282.4684°
Arg. of periapsis
112.4567°
True anomaly
247.66757°
Mean anomaly
247.6854°
Eccentric anomaly
247.67649°
Mean motion
3.8362 °/min
Orbital period
93.84 mins
BSTAR
0.00032475
Loading maneuver chart data...
Computing Atmospheric mass density...
Loading historical data...
Loading historical data...
Loading historical data...
Loading historical data...
Loading historical data...
Loading historical data...
Loading historical data...

Documentation

Showing up to 5 results
|